TOURFACTS.DK  
Stats and Facts from Tour de France.

Tour de France 2019 starts in 348 days
  Riders   Stages   Teams   Summits   Yearly  


 
Search by year

After 2018 - Stage 14:
 15000 starters.
  5163 different riders.
  639 teams.
  2246 stages.
  456 restdays.
  441957.60 km.
  5678 abandonnees.


Top 3
GC
Christopher Froome86:20:55
Rigoberto Urán86:21:49
Romain Bardet86:23:15
Climb
Warren Barguil169 pt.
Primoz Roglic80 pt.
Thomas De Gendt64 pt.
Sprint
Michael Matthews359 pt.
André Greipel234 pt.
Edvald Boasson Hagen220 pt.
Youth
Simon Yates86:27:09
Louis Meintjes86:29:15
Emanuel Buchmann86:54:16
Facts from Tour de France 1935
  |   Stages.  |   Stage winners.  |   Days in yellow  |   Average speed.  |   Route.  |   Teams.  |   All riders.  |   Rookies.  |  

  |   Withdrawls.  |   GC.  |   Polka  |   Green  |   White  |   Summits. (In tour)  |   Miscellaneous.  |  

Stage 5a on July 8th. 1935
         Owning:    Romain Maes    
Pick a stage:  1 2 3 4 5a 5b 6 7 8 9 10 11 12 13a 13b 14a 14b 15 16 17 18a 18b 19a 19b 20a 20b 21
From: Belfort    To: GenèveDist:262.00 km.

Average speed for all riders in stage:  30,846 km./hr.
    Place:Name:Team:Time:Km/h:
FRAMaurice ArchambaudFRAFrance08:21:22  +  00:00:00=31,354 
BELEdgard De CaluweBELBelgium08:22:05  +  00:00:43=31,310 
FRAGustave DanneelsBELBelgium08:22:35  +  00:01:13=31,278 
4 GERGeorg StachDEUGermany B08:22:53  +  00:01:31=31,260 
5 ITAPietro RimoldiITACadetti Italiens08:22:53  +  00:01:31=31,260 
6 ITAAmbrogio MorelliITACadetti Italiens08:22:53  +  00:01:31=31,260 
7 BELFrançois NeuvilleBELBelgium B08:22:53  +  00:01:31=31,260 
8 BELRomain MaesBELBelgium08:22:53  +  00:01:31=31,260 
9 FRAPierre-Marie CloarecTouristes Routiers08:22:53  +  00:01:31=31,260 
10 FRARené ViettoFRAFrance08:22:53  +  00:01:31=31,260 
11 FRAAntonin MagneFRAFrance08:22:53  +  00:01:31=31,260 
12 FRAJoseph MauclairTouristes Routiers08:22:53  +  00:01:31=31,260 
13 FRAGeorges SpeicherFRAFrance08:22:53  +  00:01:31=31,260 
14 BELSylvère MaesBELBelgium B08:22:53  +  00:01:31=31,260 
15 BELAntoine DignefBELBelgium B08:22:53  +  00:01:31=31,260 
16 BELJules LowieBELBelgium B08:22:53  +  00:01:31=31,260 
17 FRAJean FontenayFRAFrance B08:22:53  +  00:01:31=31,260 
18 FRAHonore GranierTouristes Routiers08:22:53  +  00:01:31=31,260 
19 FRACharles PelissierFRAFrance B08:22:53  +  00:01:31=31,260 
20 GERBruno RothDEUGermany B08:22:53  +  00:01:31=31,260 
21 SUIFritz HartmannCHESwitzerland08:22:53  +  00:01:31=31,260 
22 FRAAndré LeducqFRAFrance08:22:53  +  00:01:31=31,260 
23 GERAnton HodeyDEUGermany08:22:53  +  00:01:31=31,260 
24 ITAFrancesco CamussoITAItaly08:22:53  +  00:01:31=31,260 
25 ITALuigi GiacobbeITAItaly08:22:53  +  00:01:31=31,260 
26 ITAEugenio GestriITACadetti Italiens08:22:53  +  00:01:31=31,260 
27 ITARemo BertoniITAItaly08:22:53  +  00:01:31=31,260 
28 ITAVasco BergamaschiITAItaly08:22:53  +  00:01:31=31,260 
29 BELFélicien VervaeckeBELBelgium08:22:53  +  00:01:31=31,260 
30 FRARené BernardTouristes Routiers08:22:53  +  00:01:31=31,260 
31 FRAGabriel RuozziTouristes Routiers08:22:53  +  00:01:31=31,260 
32 FRAPierre CoganTouristes Routiers08:22:53  +  00:01:31=31,260 
33 GERGeorg UmbenhauerDEUGermany08:22:53  +  00:01:31=31,260 
34 FRAGeorges HubatzTouristes Routiers08:22:53  +  00:01:31=31,260 
35 GEROskar ThierbachDEUGermany08:22:53  +  00:01:31=31,260 
36 ITAAdriano VignoliITAItaly08:22:53  +  00:01:31=31,260 
37 ITADante GianelloTouristes Routiers08:25:34  +  00:04:12=31,094 
38 FRAJulien MoineauFRAFrance B08:28:10  +  00:06:48=30,935 
39 FRALouis ThiétardTouristes Routiers08:28:10  +  00:06:48=30,935 
40 ESPDemetrio VicenteESPSpain B08:28:10  +  00:06:48=30,935 
41 GERFerdinand IckesDEUGermany B08:28:10  +  00:06:48=30,935 
42 ESPFrancisco CepedaESPSpain B08:28:10  +  00:06:48=30,935 
43 FRAFernand FayolleTouristes Routiers08:28:10  +  00:06:48=30,935 
44 FRACharles BertyTouristes Routiers08:28:10  +  00:06:48=30,935 
45 ESPAntonio PriorESPSpain08:28:10  +  00:06:48=30,935 
46 FRAPaul ChocqueTouristes Routiers08:28:10  +  00:06:48=30,935 
47 ESPVicente BacheroESPSpain B08:28:10  +  00:06:48=30,935 
48 BELHenri GarnierBELBelgium08:28:57  +  00:07:35=30,887 
49 ESPEmiliano AlvarezESPSpain08:29:40  +  00:08:18=30,844 
50 ESPSalvador CardonaESPSpain08:29:40  +  00:08:18=30,844 
51 FRARené DebenneFRAFrance08:29:40  +  00:08:18=30,844 
52 BELJean AertsBELBelgium08:29:40  +  00:08:18=30,844 
53 FRABenoit FaureTouristes Routiers08:32:22  +  00:11:00=30,681 
54 FRARobert RenonceTouristes Routiers08:32:22  +  00:11:00=30,681 
55 FRARoger LapebieFRAFrance B08:32:22  +  00:11:00=30,681 
56 FRARené Le GrevesFRAFrance08:32:22  +  00:11:00=30,681 
57 FRAJules MervielFRAFrance08:32:22  +  00:11:00=30,681 
58 GEREmil KijewskiDEUGermany08:36:01  +  00:14:39=30,464 
59 BELLouis HardiquestBELBelgium08:36:01  +  00:14:39=30,464 
60 FRAMaurice PomarèdeTouristes Routiers08:36:01  +  00:14:39=30,464 
61 ESPManuel GarciaTouristes Routiers08:36:25  +  00:15:03=30,441 
62 ITAOreste BernardoniTouristes Routiers08:36:25  +  00:15:03=30,441 
63 FRAJean PhilipTouristes Routiers08:36:25  +  00:15:03=30,441 
64 FRAGeorges LachatTouristes Routiers08:36:25  +  00:15:03=30,441 
65 GERGeorge HaendelDEUGermany B08:36:25  +  00:15:03=30,441 
66 SUIKurt StettlerCHESwitzerland08:36:25  +  00:15:03=30,441 
67 SUILéo AmbergCHESwitzerland08:38:49  +  00:17:27=30,300 
68 FRAClément BistagneTouristes Routiers08:40:23  +  00:19:01=30,209 
69 ITAAldo BertoccoTouristes Routiers08:40:23  +  00:19:01=30,209 
70 ESPThéodore LadronTouristes Routiers08:42:42  +  00:21:20=30,075 
71 GEROtto WeckerlingDEUGermany08:42:42  +  00:21:20=30,075 
72 ITAOrlando TeaniITACadetti Italiens08:45:33  +  00:24:11=29,912 
73 ITARafaële Di PacoITAItaly08:45:33  +  00:24:11=29,912 
74 GERWilly KutschbachDEUGermany08:45:39  +  00:24:17=29,906 
75 GERKurt StöpelDEUGermany08:45:39  +  00:24:17=29,906 
76 LUXJosy KrausTouristes Routiers08:49:25  +  00:28:03=29,693 
77 ESPIsidro FiguerasESPSpain08:49:25  +  00:28:03=29,693 
78 GERKarl HeideDEUGermany09:00:45  +  00:39:23=29,071 

Withdrawls: 6
 
Rider
Team
Reason
17  ESPFederico EzquerraESPSpainDid not finish
18  ESPMariano CañardoESPSpainDid not finish
19  ESPVicente TruebaESPSpainDid not finish
103  ITARené-Paul CoralliniTouristes RoutiersDid not finish
109  FRASezny Le RouxTouristes RoutiersDid not finish
122  FRAPierre JanvierTouristes RoutiersDid not finish

Todays birthdays.

1877  Antoine Perrichon
1878  Auguste Berthault
1911  Théo Herckenrath
1924  Carlo Lafranchi
1931  Armand Di Caro
1937  Jean-Claude Lebaube
1951  Giovanni Battaglin
1961  Pascal Jules
1962  Jean-Claude Leclercq
1976  Janek Tombak
1978  Francisco Pérez
1983  Dries Devenyns




Visits: